| time (UTC) | temp C | wind direction | speed KPH | gust KPH | rain 1hr cm | rain 24hr cm | rain mn cm | humidity % | barometer mb |
| 20260508151554 | 19 | 153 | 0.0 | 6.4 | 0.00 | 0.08 | 0.00 | 88 | 1015.1 |
| 20260508150050 | 19 | 163 | 1.6 | 6.4 | 0.00 | 0.08 | 0.00 | 87 | 1014.9 |
| 20260508144551 | 19 | 165 | 0.0 | 4.8 | 0.00 | 0.76 | 0.00 | 88 | 1015.2 |
| 20260508143049 | 19 | 175 | 0.0 | 4.8 | 0.00 | 0.76 | 0.00 | 87 | 1015.2 |
| 20260508141612 | 19 | 141 | 0.0 | 4.8 | 0.00 | 0.76 | 0.00 | 88 | 1015.1 |
| 20260508140048 | 18 | 267 | 0.0 | 3.2 | 0.00 | 0.76 | 0.00 | 88 | 1015.1 |
| 20260508134559 | 18 | 95 | 0.0 | 4.8 | 0.00 | 0.76 | 0.00 | 88 | 1015.2 |
| 20260508133048 | 18 | 15 | 1.6 | 8.0 | 0.00 | 0.76 | 0.00 | 87 | 1015.1 |
| 20260508131547 | 18 | 203 | 1.6 | 8.0 | 0.00 | 0.76 | 0.00 | 88 | 1015.0 |
| 20260508130046 | 18 | 41 | 1.6 | 8.0 | 0.00 | 0.76 | 0.00 | 89 | 1015.4 |
| 20260508124555 | 18 | 115 | 0.0 | 8.0 | 0.00 | 0.76 | 0.00 | 91 | 1015.3 |
| 20260508123049 | 18 | 120 | 0.0 | 3.2 | 0.00 | 0.76 | 0.00 | 90 | 1015.6 |
| 20260508121543 | 18 | 319 | 0.0 | 1.6 | 0.00 | 0.76 | 0.00 | 90 | 1015.8 |
| 20260508120042 | 18 | 217 | 0.0 | 1.6 | 0.00 | 0.76 | 0.00 | 88 | 1015.8 |
| 20260508114540 | 18 | 281 | 0.0 | 1.6 | 0.00 | 0.76 | 0.00 | 88 | 1015.7 |
| 20260508113048 | 18 | 163 | 0.0 | 4.8 | 0.00 | 0.76 | 0.00 | 87 | 1015.0 |
| 20260508111532 | 18 | 336 | 0.0 | 4.8 | 0.00 | 0.76 | 0.00 | 87 | 1014.1 |
| 20260508110029 | 18 | 99 | 0.0 | 4.8 | 0.00 | 0.76 | 0.00 | 87 | 1014.0 |
| 20260508104527 | 18 | 91 | 0.0 | 3.2 | 0.00 | 0.76 | 0.00 | 88 | 1014.2 |
| 20260508103033 | 18 | 72 | 0.0 | 1.6 | 0.00 | 0.76 | 0.00 | 88 | 1014.1 |
| 20260508101530 | 18 | 26 | 0.0 | 3.2 | 0.00 | 0.76 | 0.00 | 88 | 1013.9 |
| 20260508100027 | 18 | 75 | 0.0 | 3.2 | 0.00 | 0.76 | 0.00 | 88 | 1013.9 |
| 20260508094525 | 18 | 123 | 0.0 | 1.6 | 0.00 | 0.76 | 0.00 | 89 | 1014.0 |
| 20260508093025 | 18 | 295 | 0.0 | 3.2 | 0.00 | 0.76 | 0.00 | 88 | 1013.9 |
| 20260508091534 | 18 | 32 | 0.0 | 1.6 | 0.00 | 0.76 | 0.00 | 89 | 1013.9 |
| 20260508090035 | 18 | 248 | 0.0 | 1.6 | 0.00 | 0.76 | 0.00 | 89 | 1013.9 |
| 20260508084522 | 18 | 295 | 0.0 | 1.6 | 0.00 | 0.76 | 0.00 | 89 | 1013.6 |
| 20260508083022 | 18 | 127 | 0.0 | 1.6 | 0.00 | 0.76 | 0.00 | 90 | 1013.5 |
| 20260508081521 | 18 | 30 | 0.0 | 4.8 | 0.00 | 0.76 | 0.00 | 89 | 1013.5 |
| 20260508080030 | 18 | 182 | 0.0 | 0.0 | 0.00 | 0.76 | 0.00 | 90 | 1013.5 |
| 20260508074527 | 18 | 226 | 0.0 | 0.0 | 0.00 | 0.76 | 0.00 | 91 | 1013.6 |
| 20260508073022 | 18 | 103 | 0.0 | 4.8 | 0.00 | 0.76 | 0.00 | 92 | 1013.8 |
| 20260508071524 | 18 | 314 | 0.0 | 4.8 | 0.00 | 0.76 | 0.00 | 92 | 1013.7 |
| 20260508070017 | 18 | 144 | 0.0 | 3.2 | 0.00 | 0.76 | 0.00 | 92 | 1013.8 |
| 20260508064519 | 18 | 75 | 0.0 | 1.6 | 0.00 | 0.76 | 0.00 | 92 | 1014.0 |
| 20260508063013 | 18 | 103 | 0.0 | 1.6 | 0.00 | 0.76 | 0.00 | 92 | 1014.0 |
| 20260508061511 | 19 | 141 | 0.0 | 3.2 | 0.00 | 0.76 | 0.00 | 92 | 1014.1 |
| 20260508060011 | 19 | 198 | 0.0 | 3.2 | 0.00 | 0.76 | 0.00 | 91 | 1014.2 |
| 20260508054510 | 19 | 112 | 0.0 | 3.2 | 0.00 | 0.76 | 0.00 | 92 | 1014.4 |
| 20260508053007 | 19 | 127 | 0.0 | 4.8 | 0.00 | 0.76 | 0.00 | 92 | 1014.3 |
| 20260508051505 | 20 | 157 | 0.0 | 0.0 | 0.00 | 0.76 | 0.00 | 91 | 1014.4 |
| 20260508050002 | 20 | 105 | 0.0 | 1.6 | 0.00 | 0.76 | 0.00 | 91 | 1014.8 |
| 20260508044610 | 20 | 155 | 0.0 | 3.2 | 0.00 | 0.76 | 0.76 | 91 | 1014.5 |
| 20260508043109 | 20 | 222 | 0.0 | 3.2 | 0.00 | 0.76 | 0.76 | 91 | 1014.7 |
| 20260508041559 | 20 | 113 | 0.0 | 1.6 | 0.00 | 0.76 | 0.76 | 91 | 1014.8 |
| 20260508040057 | 20 | 158 | 0.0 | 8.0 | 0.00 | 0.76 | 0.76 | 91 | 1014.8 |
| 20260508034555 | 20 | 201 | 0.0 | 4.8 | 0.00 | 0.76 | 0.76 | 91 | 1014.7 |
| 20260508033053 | 20 | 117 | 0.0 | 4.8 | 0.00 | 0.76 | 0.76 | 91 | 1014.4 |
| 20260508031550 | 21 | 158 | 0.0 | 6.4 | 0.00 | 0.76 | 0.76 | 91 | 1014.4 |
| 20260508030049 | 21 | 11 | 0.0 | 3.2 | 0.00 | 0.76 | 0.76 | 91 | 1014.4 |
| 20260508024548 | 21 | 211 | 0.0 | 4.8 | 0.00 | 0.76 | 0.76 | 91 | 1014.7 |
| 20260508023047 | 21 | 231 | 0.0 | 4.8 | 0.00 | 0.76 | 0.76 | 91 | 1014.8 |
| 20260508021548 | 21 | 199 | 0.0 | 4.8 | 0.00 | 0.76 | 0.76 | 92 | 1014.6 |
| 20260508020042 | 21 | 279 | 0.0 | 4.8 | 0.00 | 0.76 | 0.76 | 93 | 1014.3 |
| 20260508014542 | 21 | 250 | 0.0 | 0.0 | 0.00 | 0.76 | 0.76 | 93 | 1014.1 |
| 20260508013042 | 21 | 250 | 0.0 | 0.0 | 0.00 | 0.76 | 0.76 | 92 | 1013.9 |
| 20260508011542 | 22 | 250 | 0.0 | 0.0 | 0.00 | 0.76 | 0.76 | 91 | 1013.6 |
| 20260508010040 | 22 | 250 | 0.0 | 0.0 | 0.00 | 0.76 | 0.76 | 90 | 1013.4 |
| 20260508004541 | 22 | 250 | 0.0 | 0.0 | 0.00 | 0.76 | 0.76 | 89 | 1013.3 |
| 20260508003039 | 22 | 257 | 0.0 | 0.0 | 0.00 | 0.76 | 0.76 | 88 | 1013.1 |
| 20260508001539 | 23 | 207 | 0.0 | 1.6 | 0.00 | 0.76 | 0.76 | 87 | 1013.1 |
| 20260508000038 | 23 | 127 | 0.0 | 8.0 | 0.00 | 0.76 | 0.76 | 85 | 1013.0 |
| 20260507234538 | 23 | 179 | 0.0 | 4.8 | 0.00 | 0.76 | 0.76 | 86 | 1013.3 |
| 20260507233039 | 23 | 311 | 0.0 | 4.8 | 0.00 | 0.76 | 0.76 | 85 | 1013.1 |
| 20260507231540 | 24 | 301 | 0.0 | 8.0 | 0.00 | 0.76 | 0.76 | 84 | 1013.2 |
| 20260507230037 | 24 | 223 | 0.0 | 4.8 | 0.00 | 0.76 | 0.76 | 84 | 1013.1 |
| 20260507224537 | 25 | 255 | 0.0 | 4.8 | 0.00 | 0.76 | 0.76 | 83 | 1012.8 |
| 20260507223036 | 25 | 347 | 0.0 | 4.8 | 0.00 | 0.76 | 0.76 | 83 | 1012.8 |
| 20260507221535 | 25 | 111 | 0.0 | 4.8 | 0.00 | 0.76 | 0.76 | 83 | 1012.7 |
| 20260507220036 | 25 | 101 | 1.6 | 8.0 | 0.00 | 0.76 | 0.76 | 83 | 1012.8 |
| 20260507214541 | 25 | 202 | 0.0 | 3.2 | 0.00 | 0.76 | 0.76 | 83 | 1012.7 |
| 20260507213033 | 26 | 324 | 0.0 | 6.4 | 0.00 | 0.76 | 0.76 | 83 | 1012.8 |
| 20260507211532 | 25 | 309 | 0.0 | 3.2 | 0.00 | 0.76 | 0.76 | 83 | 1012.8 |
| 20260507210047 | 25 | 349 | 0.0 | 4.8 | 0.00 | 0.76 | 0.76 | 84 | 1012.6 |
| 20260507204532 | 26 | 143 | 0.0 | 1.6 | 0.00 | 0.76 | 0.76 | 82 | 1012.7 |
| 20260507203035 | 26 | 141 | 0.0 | 4.8 | 0.00 | 0.76 | 0.76 | 82 | 1012.8 |
| 20260507201528 | 26 | 85 | 0.0 | 4.8 | 0.00 | 0.76 | 0.76 | 84 | 1012.8 |
| 20260507200035 | 25 | 345 | 0.0 | 3.2 | 0.00 | 0.76 | 0.76 | 84 | 1012.8 |
| 20260507194538 | 25 | 74 | 1.6 | 6.4 | 0.00 | 0.76 | 0.76 | 86 | 1013.0 |
| 20260507193031 | 25 | 137 | 0.0 | 4.8 | 0.00 | 0.76 | 0.76 | 88 | 1013.0 |
| 20260507191523 | 23 | 122 | 0.0 | 3.2 | 0.00 | 0.76 | 0.76 | 89 | 1013.1 |
| 20260507190024 | 23 | 172 | 0.0 | 3.2 | 0.00 | 0.76 | 0.76 | 92 | 1013.2 |
| 20260507184522 | 23 | 53 | 0.0 | 4.8 | 0.00 | 0.76 | 0.76 | 93 | 1013.3 |
| 20260507183028 | 22 | 248 | 0.0 | 3.2 | 0.00 | 0.76 | 0.76 | 95 | 1013.4 |
| 20260507181520 | 21 | 202 | 0.0 | 3.2 | 0.03 | 0.76 | 0.76 | 96 | 1013.6 |
| 20260507180024 | 21 | 262 | 0.0 | 4.8 | 0.03 | 0.76 | 0.76 | 96 | 1013.9 |
| 20260507174523 | 21 | 350 | 0.0 | 3.2 | 0.05 | 0.84 | 0.76 | 96 | 1014.1 |
| 20260507173021 | 21 | 288 | 0.0 | 6.4 | 0.05 | 0.84 | 0.76 | 95 | 1014.0 |
| 20260507171516 | 21 | 345 | 0.0 | 8.0 | 0.05 | 0.81 | 0.71 | 95 | 1014.2 |
| 20260507170016 | 22 | 288 | 0.0 | 3.2 | 0.05 | 0.81 | 0.71 | 96 | 1014.1 |
| 20260507164514 | 22 | 191 | 0.0 | 3.2 | 0.03 | 0.79 | 0.71 | 96 | 1014.1 |
| 20260507163014 | 22 | 354 | 0.0 | 0.0 | 0.03 | 0.79 | 0.71 | 96 | 1014.1 |
| 20260507161515 | 22 | 252 | 0.0 | 3.2 | 0.00 | 0.76 | 0.69 | 96 | 1014.1 |
| 20260507160020 | 22 | 289 | 0.0 | 1.6 | 0.00 | 0.76 | 0.69 | 96 | 1014.2 |
| 20260507154521 | 22 | 273 | 0.0 | 3.2 | 0.00 | 0.76 | 0.69 | 97 | 1014.0 |
| 20260507153023 | 22 | 215 | 0.0 | 3.2 | 0.03 | 0.76 | 0.69 | 96 | 1014.0 |